Time,TemperatureF,DewpointF,PressureIn,WindDirection,WindDirectionDegrees,WindSpeedMPH,WindSpeedGustMPH,Humidity,HourlyPrecipIn,Conditions,Clouds,dailyrainin,SoftwareType,DateUTC
2013-02-27 00:02:00,30.0,27.0,29.89,East,84,0.0,9.0,88,0.00,,,0.00,,2013-02-27 06:02:00,
2013-02-27 00:11:00,30.0,27.0,29.89,East,84,0.0,9.0,88,0.00,,,0.00,,2013-02-27 06:11:00,
2013-02-27 00:21:00,29.0,26.0,29.88,ENE,68,5.0,10.0,88,0.00,,,0.00,,2013-02-27 06:21:00,
2013-02-27 00:33:00,29.0,26.0,29.89,East,84,8.0,10.0,88,0.00,,,0.00,,2013-02-27 06:33:00,
2013-02-27 00:41:00,29.0,26.0,29.89,East,84,8.0,10.0,88,0.00,,,0.00,,2013-02-27 06:41:00,
2013-02-27 00:51:00,29.0,26.0,29.89,East,88,0.0,9.0,89,0.00,,,0.00,,2013-02-27 06:51:00,
2013-02-27 01:01:00,29.0,26.0,29.89,ENE,70,3.0,9.0,90,0.00,,,0.00,,2013-02-27 07:01:00,
2013-02-27 01:12:00,29.0,26.0,29.89,ENE,70,3.0,9.0,90,0.00,,,0.00,,2013-02-27 07:12:00,
2013-02-27 01:21:00,29.0,26.0,29.90,ENE,61,3.0,13.0,90,0.00,,,0.00,,2013-02-27 07:21:00,
2013-02-27 01:32:00,29.0,26.0,29.90,ENE,61,3.0,13.0,90,0.00,,,0.00,,2013-02-27 07:32:00,
2013-02-27 01:41:00,29.0,26.0,29.90,ENE,61,3.0,13.0,90,0.00,,,0.00,,2013-02-27 07:41:00,
2013-02-27 01:52:00,29.0,26.0,29.90,ESE,112,3.0,11.0,90,0.00,,,0.00,,2013-02-27 07:52:00,
2013-02-27 02:01:00,29.0,26.0,29.90,ESE,112,3.0,11.0,90,0.00,,,0.00,,2013-02-27 08:01:00,
2013-02-27 02:11:00,29.0,26.0,29.90,ESE,112,3.0,11.0,90,0.00,,,0.00,,2013-02-27 08:11:00,
2013-02-27 02:21:00,29.0,26.0,29.89,East,85,5.0,12.0,90,0.00,,,0.00,,2013-02-27 08:21:00,
2013-02-27 02:32:00,29.0,27.0,29.89,ESE,112,7.0,12.0,91,0.00,,,0.00,,2013-02-27 08:32:00,
2013-02-27 02:42:00,29.0,27.0,29.89,ESE,112,7.0,12.0,91,0.00,,,0.00,,2013-02-27 08:42:00,
2013-02-27 02:52:00,29.0,27.0,29.89,East,85,9.0,11.0,91,0.00,,,0.00,,2013-02-27 08:52:00,
2013-02-27 03:01:00,29.0,27.0,29.88,ESE,118,6.0,14.0,91,0.00,,,0.00,,2013-02-27 09:01:00,
2013-02-27 03:12:00,29.0,27.0,29.88,ESE,118,6.0,14.0,91,0.00,,,0.00,,2013-02-27 09:12:00,
2013-02-27 03:21:00,29.0,27.0,29.88,North,11,0.0,8.0,92,0.00,,,0.00,,2013-02-27 09:21:00,
2013-02-27 03:32:00,29.0,27.0,29.88,ENE,64,5.0,12.0,92,0.00,,,0.00,,2013-02-27 09:32:00,
2013-02-27 03:41:00,29.0,27.0,29.88,ENE,64,5.0,12.0,92,0.00,,,0.00,,2013-02-27 09:41:00,
2013-02-27 03:52:00,29.0,27.0,29.88,NE,35,3.0,9.0,92,0.00,,,0.00,,2013-02-27 09:52:00,
2013-02-27 04:01:00,29.0,27.0,29.88,NE,46,4.0,10.0,92,0.00,,,0.00,,2013-02-27 10:01:00,
2013-02-27 04:12:00,29.0,27.0,29.88,NE,46,4.0,10.0,92,0.00,,,0.00,,2013-02-27 10:12:00,
2013-02-27 04:21:00,29.0,27.0,29.89,ENE,66,7.0,11.0,92,0.00,,,0.00,,2013-02-27 10:21:00,
2013-02-27 04:32:00,29.0,27.0,29.89,ENE,63,0.0,12.0,93,0.00,,,0.00,,2013-02-27 10:32:00,
2013-02-27 04:42:00,29.0,27.0,29.89,ENE,63,0.0,12.0,93,0.00,,,0.00,,2013-02-27 10:42:00,
2013-02-27 04:52:00,29.0,27.0,29.89,ENE,70,4.0,8.0,93,0.00,,,0.00,,2013-02-27 10:52:00,
2013-02-27 05:02:00,29.0,27.0,29.89,ENE,70,4.0,8.0,93,0.00,,,0.00,,2013-02-27 11:02:00,
2013-02-27 05:12:00,29.0,27.0,29.89,ENE,70,4.0,8.0,93,0.00,,,0.00,,2013-02-27 11:12:00,
2013-02-27 05:22:00,29.0,27.0,29.89,NE,43,6.0,11.0,93,0.00,,,0.00,,2013-02-27 11:22:00,
2013-02-27 05:32:00,29.0,27.0,29.89,NE,43,6.0,11.0,93,0.00,,,0.00,,2013-02-27 11:32:00,
2013-02-27 05:42:00,29.0,27.0,29.89,NE,43,6.0,11.0,93,0.00,,,0.00,,2013-02-27 11:42:00,
2013-02-27 05:52:00,29.0,27.0,29.88,East,95,4.0,12.0,92,0.00,,,0.00,,2013-02-27 11:52:00,
2013-02-27 06:02:00,29.0,27.0,29.88,NNE,23,5.0,12.0,92,0.00,,,0.00,,2013-02-27 12:02:00,
2013-02-27 06:13:00,29.0,27.0,29.88,NNE,23,5.0,12.0,92,0.00,,,0.00,,2013-02-27 12:13:00,
2013-02-27 06:22:00,29.0,27.0,29.88,ENE,59,0.0,13.0,92,0.00,,,0.00,,2013-02-27 12:22:00,
2013-02-27 06:33:00,29.0,27.0,29.88,East,82,3.0,11.0,91,0.00,,,0.00,,2013-02-27 12:33:00,
2013-02-27 06:42:00,29.0,27.0,29.88,East,82,3.0,11.0,91,0.00,,,0.00,,2013-02-27 12:42:00,
2013-02-27 06:52:00,29.0,27.0,29.88,NE,46,0.0,12.0,91,0.00,,,0.00,,2013-02-27 12:52:00,
2013-02-27 07:02:00,29.0,27.0,29.88,NNE,12,8.0,10.0,91,0.00,,,0.00,,2013-02-27 13:02:00,
2013-02-27 07:11:00,29.0,27.0,29.88,NNE,12,8.0,10.0,91,0.00,,,0.00,,2013-02-27 13:11:00,
2013-02-27 07:22:00,29.0,27.0,29.89,ESE,122,10.0,12.0,91,0.00,,,0.00,,2013-02-27 13:22:00,
2013-02-27 07:32:00,29.0,27.0,29.90,NE,52,6.0,9.0,91,0.00,,,0.00,,2013-02-27 13:32:00,
2013-02-27 07:42:00,29.0,27.0,29.90,NE,52,6.0,9.0,91,0.00,,,0.00,,2013-02-27 13:42:00,
2013-02-27 07:52:00,29.0,27.0,29.90,ENE,61,6.0,8.0,91,0.00,,,0.00,,2013-02-27 13:52:00,
2013-02-27 08:02:00,29.0,27.0,29.90,ENE,61,6.0,8.0,91,0.00,,,0.00,,2013-02-27 14:02:00,
2013-02-27 08:12:00,29.0,27.0,29.90,ENE,61,6.0,8.0,91,0.00,,,0.00,,2013-02-27 14:12:00,
2013-02-27 08:21:00,29.0,27.0,29.91,NE,45,0.0,9.0,92,0.00,,,0.00,,2013-02-27 14:21:00,
2013-02-27 08:32:00,29.0,27.0,29.91,East,85,7.0,12.0,91,0.00,,,0.00,,2013-02-27 14:32:00,
2013-02-27 08:42:00,29.0,27.0,29.91,East,85,7.0,12.0,91,0.00,,,0.00,,2013-02-27 14:42:00,
2013-02-27 08:52:00,30.0,27.0,29.91,ESE,106,7.0,14.0,90,0.00,,,0.00,,2013-02-27 14:52:00,
2013-02-27 09:02:00,30.0,27.0,29.91,East,81,4.0,10.0,90,0.00,,,0.00,,2013-02-27 15:02:00,
2013-02-27 09:12:00,30.0,27.0,29.91,East,81,4.0,10.0,90,0.00,,,0.00,,2013-02-27 15:12:00,
2013-02-27 09:22:00,30.0,27.0,29.91,NE,36,0.0,11.0,88,0.00,,,0.00,,2013-02-27 15:22:00,
2013-02-27 09:32:00,30.0,27.0,29.91,NE,36,0.0,11.0,88,0.00,,,0.00,,2013-02-27 15:32:00,
2013-02-27 09:42:00,30.0,27.0,29.91,NE,36,0.0,11.0,88,0.00,,,0.00,,2013-02-27 15:42:00,
2013-02-27 09:52:00,30.0,27.0,29.91,NNE,12,8.0,12.0,87,0.00,,,0.00,,2013-02-27 15:52:00,
2013-02-27 10:01:00,30.0,27.0,29.91,NNE,33,6.0,17.0,87,0.00,,,0.00,,2013-02-27 16:01:00,
2013-02-27 10:12:00,30.0,27.0,29.91,NNE,33,6.0,17.0,87,0.00,,,0.00,,2013-02-27 16:12:00,
2013-02-27 10:22:00,31.0,27.0,29.91,ENE,77,7.0,15.0,86,0.00,,,0.00,,2013-02-27 16:22:00,
2013-02-27 10:32:00,31.0,27.0,29.91,ENE,77,7.0,15.0,86,0.00,,,0.00,,2013-02-27 16:32:00,
2013-02-27 10:42:00,31.0,27.0,29.91,ENE,77,7.0,15.0,86,0.00,,,0.00,,2013-02-27 16:42:00,
2013-02-27 10:52:00,31.0,27.0,29.90,East,98,8.0,18.0,84,0.00,,,0.00,,2013-02-27 16:52:00,
2013-02-27 11:01:00,31.0,27.0,29.90,NNE,28,6.0,14.0,84,0.00,,,0.00,,2013-02-27 17:01:00,
2013-02-27 11:11:00,31.0,27.0,29.90,NNE,28,6.0,14.0,84,0.00,,,0.00,,2013-02-27 17:11:00,
2013-02-27 11:21:00,31.0,27.0,29.90,NNE,28,6.0,14.0,84,0.00,,,0.00,,2013-02-27 17:21:00,
2013-02-27 11:32:00,31.0,27.0,29.90,NNE,28,6.0,14.0,84,0.00,,,0.00,,2013-02-27 17:32:00,
2013-02-27 11:42:00,31.0,27.0,29.90,NNE,28,6.0,14.0,84,0.00,,,0.00,,2013-02-27 17:42:00,
2013-02-27 11:52:00,32.0,27.0,29.89,NE,36,5.0,13.0,82,0.00,,,0.00,,2013-02-27 17:52:00,
2013-02-27 12:02:00,32.0,27.0,29.89,NE,36,5.0,13.0,82,0.00,,,0.00,,2013-02-27 18:02:00,
2013-02-27 12:11:00,32.0,27.0,29.89,NE,36,5.0,13.0,82,0.00,,,0.00,,2013-02-27 18:11:00,
2013-02-27 12:22:00,34.0,28.0,29.89,ESE,112,11.0,13.0,78,0.00,,,0.00,,2013-02-27 18:22:00,
2013-02-27 12:32:00,34.0,28.0,29.89,ESE,112,11.0,13.0,78,0.00,,,0.00,,2013-02-27 18:32:00,
2013-02-27 12:42:00,34.0,28.0,29.89,ESE,112,11.0,13.0,78,0.00,,,0.00,,2013-02-27 18:42:00,
2013-02-27 12:51:00,35.0,28.0,29.89,North,8,10.0,16.0,75,0.00,,,0.00,,2013-02-27 18:51:00,
2013-02-27 13:01:00,35.0,28.0,29.89,North,8,10.0,16.0,75,0.00,,,0.00,,2013-02-27 19:01:00,
2013-02-27 13:12:00,35.0,28.0,29.89,North,8,10.0,16.0,75,0.00,,,0.00,,2013-02-27 19:12:00,
2013-02-27 13:21:00,35.0,28.0,29.89,North,8,10.0,16.0,75,0.00,,,0.00,,2013-02-27 19:21:00,
2013-02-27 13:32:00,37.0,28.0,29.88,ENE,70,10.0,17.0,69,0.00,,,0.00,,2013-02-27 19:32:00,
2013-02-27 13:42:00,37.0,28.0,29.88,ENE,70,10.0,17.0,69,0.00,,,0.00,,2013-02-27 19:42:00,
2013-02-27 13:52:00,37.0,28.0,29.88,ENE,70,10.0,17.0,69,0.00,,,0.00,,2013-02-27 19:52:00,
2013-02-27 14:01:00,37.0,28.0,29.88,NNE,32,7.0,12.0,69,0.00,,,0.00,,2013-02-27 20:01:00,
2013-02-27 14:11:00,37.0,28.0,29.88,NNE,32,7.0,12.0,69,0.00,,,0.00,,2013-02-27 20:11:00,
2013-02-27 14:22:00,37.0,28.0,29.88,NNE,32,7.0,12.0,69,0.00,,,0.00,,2013-02-27 20:22:00,
2013-02-27 14:32:00,38.0,28.0,29.88,ESE,112,5.0,19.0,67,0.00,,,0.00,,2013-02-27 20:32:00,
2013-02-27 14:42:00,38.0,28.0,29.88,ESE,112,5.0,19.0,67,0.00,,,0.00,,2013-02-27 20:42:00,
2013-02-27 14:52:00,39.0,29.0,29.88,NE,54,6.0,19.0,67,0.00,,,0.00,,2013-02-27 20:52:00,
2013-02-27 15:02:00,39.0,29.0,29.88,NE,52,3.0,13.0,67,0.00,,,0.00,,2013-02-27 21:02:00,
2013-02-27 15:11:00,39.0,29.0,29.88,NE,52,3.0,13.0,67,0.00,,,0.00,,2013-02-27 21:11:00,
2013-02-27 15:21:00,39.0,29.0,29.88,NE,52,3.0,13.0,67,0.00,,,0.00,,2013-02-27 21:21:00,
2013-02-27 15:32:00,39.0,29.0,29.88,NNE,26,11.0,15.0,67,0.00,,,0.00,,2013-02-27 21:32:00,
2013-02-27 15:42:00,39.0,29.0,29.88,NNE,26,11.0,15.0,67,0.00,,,0.00,,2013-02-27 21:42:00,
2013-02-27 15:52:00,39.0,29.0,29.88,East,82,12.0,13.0,68,0.00,,,0.00,,2013-02-27 21:52:00,
2013-02-27 16:01:00,39.0,29.0,29.89,NE,50,12.0,15.0,68,0.00,,,0.00,,2013-02-27 22:01:00,
2013-02-27 16:11:00,39.0,29.0,29.89,NE,50,12.0,15.0,68,0.00,,,0.00,,2013-02-27 22:11:00,
2013-02-27 16:21:00,39.0,29.0,29.89,NE,50,12.0,15.0,68,0.00,,,0.00,,2013-02-27 22:21:00,
2013-02-27 16:31:00,39.0,29.0,29.90,NE,45,8.0,14.0,68,0.00,,,0.00,,2013-02-27 22:31:00,
2013-02-27 16:41:00,39.0,29.0,29.90,NE,45,8.0,14.0,68,0.00,,,0.00,,2013-02-27 22:41:00,
2013-02-27 16:52:00,38.0,29.0,29.90,SE,130,6.0,13.0,71,0.00,,,0.00,,2013-02-27 22:52:00,
2013-02-27 17:01:00,38.0,29.0,29.90,SE,130,6.0,13.0,71,0.00,,,0.00,,2013-02-27 23:01:00,
2013-02-27 17:11:00,38.0,29.0,29.90,SE,130,6.0,13.0,71,0.00,,,0.00,,2013-02-27 23:11:00,
2013-02-27 17:21:00,38.0,30.0,29.91,ESE,106,6.0,9.0,72,0.00,,,0.00,,2013-02-27 23:21:00,
2013-02-27 17:32:00,36.0,29.0,29.91,East,95,4.0,11.0,75,0.00,,,0.00,,2013-02-27 23:32:00,
2013-02-27 17:42:00,36.0,29.0,29.91,East,95,4.0,11.0,75,0.00,,,0.00,,2013-02-27 23:42:00,
2013-02-27 17:52:00,35.0,28.0,29.92,ENE,59,2.0,8.0,76,0.00,,,0.00,,2013-02-27 23:52:00,
2013-02-27 18:02:00,35.0,28.0,29.92,ENE,59,2.0,8.0,76,0.00,,,0.00,,2013-02-28 00:02:00,
2013-02-27 18:12:00,35.0,28.0,29.92,ENE,59,2.0,8.0,76,0.00,,,0.00,,2013-02-28 00:12:00,
2013-02-27 18:21:00,35.0,28.0,29.92,ENE,59,2.0,8.0,76,0.00,,,0.00,,2013-02-28 00:21:00,
2013-02-27 18:52:00,32.0,27.0,29.96,ENE,77,4.0,9.0,82,0.00,,,0.00,,2013-02-28 00:52:00,
2013-02-27 19:01:00,32.0,28.0,29.97,SSE,158,3.0,12.0,84,0.00,,,0.00,,2013-02-28 01:01:00,
2013-02-27 19:11:00,32.0,28.0,29.97,SSE,158,3.0,12.0,84,0.00,,,0.00,,2013-02-28 01:11:00,
2013-02-27 19:21:00,32.0,28.0,29.97,SSE,158,3.0,12.0,84,0.00,,,0.00,,2013-02-28 01:21:00,
2013-02-27 19:32:00,31.0,27.0,29.97,NE,40,3.0,13.0,85,0.00,,,0.00,,2013-02-28 01:32:00,
2013-02-27 19:41:00,31.0,27.0,29.97,NE,40,3.0,13.0,85,0.00,,,0.00,,2013-02-28 01:41:00,
2013-02-27 19:52:00,31.0,28.0,29.97,SSE,150,7.0,10.0,87,0.00,,,0.00,,2013-02-28 01:52:00,
2013-02-27 20:01:00,31.0,28.0,29.97,SSE,150,7.0,10.0,87,0.00,,,0.00,,2013-02-28 02:01:00,
2013-02-27 20:11:00,31.0,28.0,29.97,SSE,150,7.0,10.0,87,0.00,,,0.00,,2013-02-28 02:11:00,
2013-02-27 20:22:00,31.0,28.0,29.97,SSE,150,7.0,10.0,87,0.00,,,0.00,,2013-02-28 02:22:00,
2013-02-27 21:22:00,29.0,26.0,30.01,ESE,111,4.0,8.0,88,0.00,,,0.00,,2013-02-28 03:22:00,
2013-02-27 21:32:00,29.0,26.0,30.01,ESE,112,0.0,7.0,89,0.00,,,0.00,,2013-02-28 03:32:00,
2013-02-27 21:42:00,29.0,26.0,30.01,ESE,112,0.0,7.0,89,0.00,,,0.00,,2013-02-28 03:42:00,
2013-02-27 21:52:00,29.0,26.0,30.01,NE,50,0.0,4.0,89,0.00,,,0.00,,2013-02-28 03:52:00,
2013-02-27 22:01:00,29.0,26.0,30.01,ESE,105,4.0,7.0,89,0.00,,,0.00,,2013-02-28 04:01:00,
2013-02-27 22:11:00,29.0,26.0,30.01,ESE,105,4.0,7.0,89,0.00,,,0.00,,2013-02-28 04:11:00,
2013-02-27 22:21:00,29.0,26.0,30.01,NE,52,0.0,7.0,89,0.00,,,0.00,,2013-02-28 04:21:00,
2013-02-27 22:32:00,29.0,26.0,30.02,NE,56,0.0,4.0,89,0.00,,,0.00,,2013-02-28 04:32:00,
2013-02-27 22:42:00,29.0,26.0,30.02,NE,56,0.0,4.0,89,0.00,,,0.00,,2013-02-28 04:42:00,
2013-02-27 22:51:00,29.0,26.0,30.02,NE,56,0.0,4.0,89,0.00,,,0.00,,2013-02-28 04:51:00,
2013-02-27 23:01:00,28.0,25.0,30.03,NNE,33,3.0,6.0,89,0.00,,,0.00,,2013-02-28 05:01:00,
2013-02-27 23:11:00,28.0,25.0,30.03,NNE,33,3.0,6.0,89,0.00,,,0.00,,2013-02-28 05:11:00,
2013-02-27 23:22:00,28.0,25.0,30.03,ENE,75,4.0,6.0,89,0.00,,,0.00,,2013-02-28 05:22:00,
2013-02-27 23:31:00,28.0,25.0,30.04,NNE,26,4.0,9.0,89,0.00,,,0.00,,2013-02-28 05:31:00,
2013-02-27 23:42:00,28.0,25.0,30.04,NNE,26,4.0,9.0,89,0.00,,,0.00,,2013-02-28 05:42:00,
2013-02-27 23:52:00,28.0,25.0,30.04,NE,40,0.0,8.0,89,0.00,,,0.00,,2013-02-28 05:52:00,